User: anonymous
Location: NJAA Observatory
(40.6819°N, 74.8979°W)
Time: 13:55:29
(UTC-04:00)
Language:

CENTAUR R/B - Orbit

View from above orbital plane
View from above orbital plane
View from above satellite
View from above satellite

Ground track
Ground track

The orbit data is extracted from the following two-line orbital elements,

1 26906U 01040B   14201.93689274 0.00000050  00000-0  70276-4 0    08
2 26906  63.4675 174.2044 0262000 345.2117  14.7883 13.43912752    09
Epoch (UTC): 20 July 2014 22:29:07
Eccentricity: 0.0262000
inclination: 63.4675°
perigee height: 899 km
apogee height: 1290 km
right ascension of ascending node: 174.2044°
argument of perigee: 345.2117°
revolutions per day: 13.43912752
mean anomaly at epoch: 14.7883°
orbit number at epoch: 0

The dashed part of the orbit path shows where the satellite is in the earth's shadow,  

DLR